Regional Weather Roundup
Issued by NWS

Home | Current Version | Previous Version | Text Only | Print | Product List | Glossary On
Versions: 1 2 3 4 5 6 7 8 9 10 11 12 13 14 15 16 17 18 19 20 21 22 23 24 25 26 27 28 29 30 31 32 33 34 35 36 37 38 39 40 41 42 43 44 45 46 47 48 49 50
000
ASUS43 KOAX 300610
RWRNE

WEATHER ROUNDUP FOR NEBRASKA
NATIONAL WEATHER SERVICE OMAHA NE
100 AM CDT TUE MAY 30 2017

NOTES: SATELLITE DATA IS BEING USED TO AUGMENT CLOUD COVER ABOVE
       12000 FEET.
       "FAIR" INDICATES FEW OR NO CLOUDS BELOW 12,000 FEET WITH NO
       SIGNIFICANT WEATHER AND/OR OBSTRUCTIONS TO VISIBILITY.

  * THESE STATIONS DO NOT REPORT WEATHER SUCH AS RAIN...SNOW OR FOG.

NEZ001>004-019>022-054>056-300700-
NEBRASKA PANHANDLE

CITY           SKY/WX    TMP DP  RH WIND       PRES   REMARKS
SCOTTSBLUFF    CLEAR     46  38  73 N3        30.18R
6HR MIN TEMP:  46; 6HR MAX TEMP:  72;

ALLIANCE       CLEAR     40  35  83 W6        30.16R
6HR MIN TEMP:  37; 6HR MAX TEMP:  68;

CHADRON        CLEAR     44  40  85 W5        30.15S
6HR MIN TEMP:  44; 6HR MAX TEMP:  68;

GORDON         FAIR      42  36  79 W3        30.14S
6HR MIN TEMP:  41; 6HR MAX TEMP:  67;

KIMBALL        CLEAR     47  42  81 W3        30.22F
SIDNEY         PTCLDY    40  37  89 W7        30.20S
6HR MIN TEMP:  40; 6HR MAX TEMP:  69;

$$

NEZ057>060-069>072-079>082-300700-
SOUTHWEST NEBRASKA

CITY           SKY/WX    TMP DP  RH WIND       PRES   REMARKS
NORTH PLATTE   CLEAR     43  40  89 CALM      30.13R
6HR MIN TEMP:  42; 6HR MAX TEMP:  73;

IMPERIAL       CLEAR     57  46  66 W12       30.16R
6HR MIN TEMP:  52; 6HR MAX TEMP:  74;

LEXINGTON      CLEAR     50  42  75 NW3       30.11S
MCCOOK         PTCLDY    55  44  66 W8        30.14R
6HR MIN TEMP:  52; 6HR MAX TEMP:  77;

OGALLALA       CLEAR     47  37  68 CALM      30.15S
$$

NEZ005>010-023>029-035>040-094-300700-
NORTH CENTRAL NEBRASKA

CITY           SKY/WX    TMP DP  RH WIND       PRES   REMARKS
VALENTINE      CLEAR     45  37  73 W3        30.09S
6HR MIN TEMP:  45; 6HR MAX TEMP:  70;

AINSWORTH      CLEAR     48  39  71 W7        30.09S
BROKEN BOW     CLEAR     46  38  73 CALM      30.10S
6HR MIN TEMP:  45; 6HR MAX TEMP:  72;

O`NEILL        CLEAR     51  39  63 W6        30.07R
ORD            CLEAR     46  38  73 CALM      30.07S
6HR MIN TEMP:  45; 6HR MAX TEMP:  69;

THEDFORD       CLEAR     48  38  70 W3        30.13S
$$

NEZ041-046>049-061>064-073>077-083>087-300700-
SOUTH CENTRAL NEBRASKA

CITY           SKY/WX    TMP DP  RH WIND       PRES   REMARKS
GRAND ISLAND   CLEAR     54  44  69 SW5       30.09R
6HR MIN TEMP:  53; 6HR MAX TEMP:  72;

AURORA         CLEAR     52  40  63 SW3       30.08S
HASTINGS       CLEAR     54  42  64 CALM      30.10R
6HR MIN TEMP:  53; 6HR MAX TEMP:  73;

HEBRON         CLEAR     52  45  76 CALM      30.08S
HOLDREGE       CLEAR     54  41  62 CALM      30.11R
KEARNEY *      CLEAR     55  39  54 CALM      30.11R
YORK           CLEAR     54  39  58 CALM      30.08S
$$

NEZ011>018-030>034-042>045-300700-
NORTHEAST NEBRASKA

CITY           SKY/WX    TMP DP  RH WIND       PRES   REMARKS
NORFOLK        CLEAR     47  42  83 CALM      30.04S
6HR MIN TEMP:  45; 6HR MAX TEMP:  68;

ALBION         CLEAR     44  39  82 CALM      30.07R
BLAIR          CLEAR     56  42  59 CALM      30.04S
FREMONT        CLEAR     54  48  81 CALM      30.04S
TEKAMAH        MOCLDY    53  39  59 SW5       30.03R
6HR MIN TEMP:  52; 6HR MAX TEMP:  72;

WAYNE          PTCLDY    47  43  87 S6        30.03S
$$

NEZ050>053-065>068-078-088>093-300700-
SOUTHEAST NEBRASKA

CITY           SKY/WX    TMP DP  RH WIND       PRES   REMARKS
LINCOLN        CLEAR     49  44  83 CALM      30.07R
6HR MIN TEMP:  49; 6HR MAX TEMP:  74;

OMAHA EPPLEY   CLEAR     56  45  66 CALM      30.04R
6HR MIN TEMP:  55; 6HR MAX TEMP:  73;

BEATRICE       CLEAR     53  44  70 CALM      30.07S
NEBRASKA CITY  CLEAR     62  35  36 N5        30.05S
PLATTSMOUTH    CLEAR     59  42  52 SW3       30.05S
$$

NEZ044-045-051>053-067-300700-
OMAHA AREA

CITY           SKY/WX    TMP DP  RH WIND       PRES   REMARKS
OMAHA EPPLEY   CLEAR     56  45  66 CALM      30.04R
6HR MIN TEMP:  55; 6HR MAX TEMP:  73;

BLAIR          CLEAR     56  42  59 CALM      30.04S
FREMONT        CLEAR     54  48  81 CALM      30.04S
MILLARD        CLEAR     54  48  79 CALM      30.04S
OFFUTT AFB     CLEAR     49  45  86 CALM      30.03S
PLATTSMOUTH    CLEAR     59  42  52 SW3       30.05S
WAHOO          FAIR      52  41  66 SW5       30.05S
$$




USA.gov is the U.S. government's official web portal to all federal, state and local government web resources and services.